When you browse on this site, cookies collect data to enhance your experience and personalize the content and advertising you see.
Visit our Privacy Policy to learn more. By continuing to use the site, you agree to this use of cookies and data.
  • In Hungary
  • List of Countries
  • For 7 days
  • Water Temperature
  • Weather Map
  • News
  • Weather Widgets
  • user-avatar
    Login

    Hourly Weather Petuhovka

    Today, 22 January, Wednesday

    Time Temperature Precipitation Wind Pressure Humidity
    00:00 0°C° 0 mm 7 mps 740 mmHg 88%
    01:00 +1°C° 0 mm 6 mps 740 mmHg 88%
    02:00 -1°C° 0 mm 6 mps 740 mmHg 88%
    03:00 -1°C° 0 mm 6 mps 739 mmHg 87%
    04:00 0°C° 0 mm 5 mps 738 mmHg 85%
    05:00 -1°C° 0 mm 5 mps 738 mmHg 83%
    06:00 -1°C° 0.7 mm 5 mps 737 mmHg 87%
    07:00 -1°C° 0.7 mm 4 mps 736 mmHg 92%
    08:00 -2°C° 0.7 mm 4 mps 736 mmHg 96%
    09:00 -1°C° 0.3 mm 4 mps 735 mmHg 93%
    10:00 -1°C° 0.3 mm 4 mps 735 mmHg 89%
    11:00 -1°C° 0.3 mm 5 mps 734 mmHg 86%
    12:00 0°C° 0 mm 5 mps 734 mmHg 85%
    13:00 0°C° 0 mm 5 mps 734 mmHg 84%
    14:00 0°C° 0 mm 5 mps 733 mmHg 83%
    15:00 -1°C° 0.3 mm 5 mps 733 mmHg 82%
    16:00 -1°C° 0.3 mm 5 mps 734 mmHg 80%
    17:00 -2°C° 0.3 mm 5 mps 734 mmHg 79%
    18:00 -2°C° 0 mm 5 mps 735 mmHg 78%
    19:00 -4°C° 0 mm 5 mps 735 mmHg 77%
    20:00 -5°C° 0 mm 5 mps 736 mmHg 77%
    21:00 -5°C° 0 mm 5 mps 736 mmHg 77%
    22:00 -5°C° 0 mm 6 mps 737 mmHg 78%
    23:00 -5°C° 0 mm 6 mps 737 mmHg 79%

    Tomorrow, 23 January, Thursday

    Time Temperature Precipitation Wind Pressure Humidity
    00:00 -5°C° 0 mm 6 mps 738 mmHg 79%
    01:00 -5°C° 0 mm 6 mps 738 mmHg 79%
    02:00 -5°C° 0 mm 6 mps 739 mmHg 79%
    03:00 -6°C° 0 mm 7 mps 739 mmHg 76%
    04:00 -6°C° 0 mm 7 mps 739 mmHg 73%
    05:00 -6°C° 0 mm 8 mps 740 mmHg 71%
    06:00 -7°C° 0 mm 8 mps 740 mmHg 68%
    07:00 -7°C° 0 mm 7 mps 741 mmHg 66%
    08:00 -8°C° 0 mm 7 mps 742 mmHg 63%
    09:00 -7°C° 0 mm 7 mps 743 mmHg 61%
    10:00 -7°C° 0 mm 7 mps 743 mmHg 58%
    11:00 -6°C° 0 mm 7 mps 744 mmHg 56%
    12:00 -6°C° 0 mm 7 mps 744 mmHg 54%
    13:00 -6°C° 0 mm 7 mps 744 mmHg 52%
    14:00 -4°C° 0 mm 7 mps 745 mmHg 50%
    15:00 -5°C° 0 mm 6 mps 745 mmHg 54%
    16:00 -5°C° 0 mm 5 mps 745 mmHg 57%
    17:00 -5°C° 0 mm 5 mps 745 mmHg 60%
    18:00 -5°C° 0 mm 5 mps 745 mmHg 65%
    19:00 -5°C° 0 mm 4 mps 746 mmHg 69%
    20:00 -5°C° 0 mm 4 mps 746 mmHg 74%
    21:00 -5°C° 0 mm 4 mps 746 mmHg 76%
    22:00 -4°C° 0 mm 3 mps 746 mmHg 77%
    23:00 -4°C° 0 mm 3 mps 747 mmHg 79%

    Day after tomorrow, 24 January, Friday

    Time Temperature Precipitation Wind Pressure Humidity
    00:00 -4°C° 0 mm 3 mps 746 mmHg 82%
    01:00 -4°C° 0 mm 3 mps 746 mmHg 86%
    02:00 -4°C° 0 mm 4 mps 746 mmHg 89%
    03:00 -4°C° 0 mm 4 mps 746 mmHg 88%
    04:00 -4°C° 0 mm 4 mps 745 mmHg 87%
    05:00 -4°C° 0 mm 5 mps 744 mmHg 87%
    06:00 -4°C° 0.1 mm 5 mps 744 mmHg 89%
    07:00 -4°C° 0.1 mm 5 mps 743 mmHg 92%
    08:00 -5°C° 0.1 mm 6 mps 743 mmHg 95%
    09:00 -4°C° 0.3 mm 6 mps 743 mmHg 95%
    10:00 -3°C° 0.3 mm 6 mps 743 mmHg 95%
    11:00 -3°C° 0.3 mm 6 mps 742 mmHg 95%
    12:00 -2°C° 0.1 mm 6 mps 742 mmHg 94%
    13:00 -2°C° 0.1 mm 6 mps 742 mmHg 94%
    14:00 -1°C° 0.1 mm 6 mps 742 mmHg 94%
    15:00 -1°C° 0 mm 6 mps 741 mmHg 94%
    16:00 -1°C° 0 mm 6 mps 741 mmHg 94%
    17:00 -1°C° 0 mm 6 mps 741 mmHg 94%
    18:00 -1°C° 0 mm 6 mps 741 mmHg 94%
    19:00 -1°C° 0 mm 6 mps 741 mmHg 94%
    20:00 -1°C° 0 mm 6 mps 741 mmHg 94%
    21:00 -1°C° 0 mm 6 mps 741 mmHg 93%
    22:00 -1°C° 0 mm 6 mps 741 mmHg 93%
    23:00 -1°C° 0 mm 6 mps 741 mmHg 92%

    25 January, Saturday

    Time Temperature Precipitation Wind Pressure Humidity
    00:00 -1°C° 0 mm 6 mps 740 mmHg 93%
    01:00 -2°C° 0 mm 6 mps 740 mmHg 93%
    02:00 -1°C° 0 mm 5 mps 740 mmHg 93%
    03:00 -1°C° 0.1 mm 5 mps 740 mmHg 94%
    04:00 -1°C° 0.1 mm 5 mps 740 mmHg 95%
    05:00 -1°C° 0.1 mm 5 mps 740 mmHg 95%
    06:00 -1°C° 0.2 mm 5 mps 740 mmHg 96%
    07:00 -1°C° 0.2 mm 5 mps 740 mmHg 96%
    08:00 -1°C° 0.2 mm 5 mps 740 mmHg 97%
    09:00 0°C° 0.1 mm 5 mps 740 mmHg 96%
    10:00 0°C° 0.1 mm 5 mps 740 mmHg 96%
    11:00 0°C° 0.1 mm 5 mps 740 mmHg 95%
    12:00 0°C° 0 mm 5 mps 740 mmHg 95%
    13:00 0°C° 0 mm 5 mps 740 mmHg 94%
    14:00 0°C° 0 mm 5 mps 740 mmHg 94%
    15:00 0°C° 0 mm 5 mps 740 mmHg 92%
    16:00 0°C° 0 mm 5 mps 740 mmHg 91%
    17:00 0°C° 0 mm 5 mps 740 mmHg 89%
    18:00 0°C° 0 mm 5 mps 740 mmHg 89%
    19:00 -1°C° 0 mm 5 mps 741 mmHg 88%
    20:00 -1°C° 0 mm 5 mps 741 mmHg 88%
    21:00 -2°C° 0 mm 5 mps 741 mmHg 88%
    22:00 -2°C° 0 mm 5 mps 741 mmHg 88%
    23:00 -2°C° 0 mm 5 mps 741 mmHg 88%

    26 January, Sunday

    Time Temperature Precipitation Wind Pressure Humidity
    00:00 -3°C° 0 mm 4 mps 742 mmHg 89%
    01:00 -3°C° 0 mm 4 mps 742 mmHg 89%
    02:00 -3°C° 0 mm 4 mps 742 mmHg 90%
    03:00 -3°C° 0 mm 4 mps 742 mmHg 90%
    04:00 -3°C° 0 mm 4 mps 743 mmHg 90%
    05:00 -3°C° 0 mm 4 mps 743 mmHg 89%
    06:00 -3°C° 0 mm 4 mps 744 mmHg 91%
    07:00 -2°C° 0 mm 3 mps 744 mmHg 92%
    08:00 -2°C° 0 mm 3 mps 744 mmHg 93%
    09:00 -2°C° 0 mm 3 mps 745 mmHg 91%
    10:00 -1°C° 0 mm 3 mps 745 mmHg 88%
    11:00 -1°C° 0 mm 3 mps 746 mmHg 86%
    12:00 0°C° 0 mm 3 mps 746 mmHg 85%
    13:00 +1°C° 0 mm 2 mps 746 mmHg 84%
    14:00 +1°C° 0 mm 2 mps 746 mmHg 83%
    15:00 -1°C° 0 mm 2 mps 747 mmHg 86%
    16:00 -1°C° 0 mm 2 mps 747 mmHg 89%
    17:00 -2°C° 0 mm 2 mps 747 mmHg 92%
    18:00 -2°C° 0 mm 2 mps 747 mmHg 92%
    19:00 -2°C° 0 mm 2 mps 747 mmHg 93%
    20:00 -2°C° 0 mm 2 mps 748 mmHg 93%
    21:00 -2°C° 0 mm 2 mps 748 mmHg 94%
    22:00 -3°C° 0 mm 2 mps 748 mmHg 95%
    23:00 -3°C° 0 mm 2 mps 748 mmHg 95%

    27 January, Monday

    Time Temperature Precipitation Wind Pressure Humidity
    00:00 -2°C° 0 mm 2 mps 748 mmHg 93%
    01:00 -2°C° 0 mm 3 mps 748 mmHg 90%
    02:00 -2°C° 0 mm 3 mps 748 mmHg 88%
    03:00 -2°C° 0 mm 3 mps 748 mmHg 86%
    04:00 -1°C° 0 mm 3 mps 748 mmHg 84%
    05:00 -1°C° 0 mm 3 mps 748 mmHg 82%
    06:00 -1°C° 0 mm 3 mps 747 mmHg 85%
    07:00 -2°C° 0 mm 4 mps 747 mmHg 88%
    08:00 -2°C° 0 mm 4 mps 747 mmHg 91%
    09:00 -2°C° 0 mm 4 mps 747 mmHg 91%
    10:00 -2°C° 0 mm 4 mps 747 mmHg 92%
    11:00 -2°C° 0 mm 4 mps 747 mmHg 93%
    12:00 -1°C° 0 mm 4 mps 747 mmHg 89%
    13:00 -1°C° 0 mm 4 mps 746 mmHg 86%
    14:00 -1°C° 0 mm 4 mps 746 mmHg 83%
    15:00 -2°C° 0 mm 4 mps 746 mmHg 85%
    16:00 -2°C° 0 mm 4 mps 745 mmHg 88%
    17:00 -2°C° 0 mm 4 mps 745 mmHg 90%
    18:00 -2°C° 0 mm 4 mps 745 mmHg 92%
    19:00 -2°C° 0 mm 4 mps 745 mmHg 94%
    20:00 -2°C° 0 mm 4 mps 745 mmHg 96%
    21:00 -2°C° 0 mm 4 mps 744 mmHg 96%
    22:00 -2°C° 0 mm 4 mps 744 mmHg 95%
    23:00 -1°C° 0 mm 4 mps 744 mmHg 94%
    Show more